ECMWFNIL_925_thetae_021.txt.gz
Theta_e
293 293 292 292 292 292 291 291 291 290 290 290 290 290 289 289 288 288 287 287 286 286 286 286 287 287 287 286 285 283 282 282 282 282 282 281 281 280 280 280 280 280
293 293 292 292 292 292 291 291 291 291 290 290 290 290 289 289 288 288 287 287 286 286 286 286 286 286 286 285 284 283 282 282 282 281 281 280 280 280 280 280 280 280
293 292 292 292 292 292 291 291 291 291 290 290 290 289 289 288 288 287 287 286 286 286 286 286 286 286 285 284 284 283 282 282 281 281 280 280 280 279 279 279 279 279
293 292 292 292 292 292 291 291 291 290 290 290 289 289 289 288 288 287 286 286 286 286 285 285 285 285 284 284 283 282 281 281 281 280 280 280 279 279 279 278 278 278
292 292 292 292 291 291 291 291 291 290 290 290 289 289 288 288 287 287 286 286 285 285 285 285 285 284 284 283 282 281 281 281 280 279 279 279 279 278 278 278 278 278
292 292 292 292 291 291 291 291 291 290 290 290 289 289 288 288 287 287 286 286 285 285 285 285 285 284 283 282 281 281 281 280 280 279 279 279 278 278 277 277 277 277
292 292 291 291 291 291 291 290 290 290 290 289 289 288 288 287 287 287 286 286 285 285 285 285 284 283 282 282 281 281 280 280 279 278 278 278 277 277 277 276 276 276
291 291 291 291 291 291 290 290 290 290 289 289 288 288 288 287 287 286 286 285 285 285 285 285 284 283 282 282 281 280 280 279 279 278 278 278 277 276 276 276 276 276
291 291 290 290 290 290 290 290 289 289 289 289 288 287 287 287 287 286 285 285 285 285 285 284 283 282 282 281 280 280 279 279 278 278 278 277 276 276 275 275 275 275
290 290 290 290 290 290 290 289 289 289 288 288 288 287 287 286 286 285 285 284 285 285 284 284 283 282 281 280 280 280 279 279 278 278 278 277 276 275 275 275 274 274
290 290 290 289 289 289 289 289 288 288 287 287 287 286 286 285 285 284 284 284 285 285 284 283 282 281 281 280 280 279 279 279 278 278 277 276 275 274 274 274 274 273
290 290 289 289 289 288 288 287 287 287 287 286 286 286 285 285 284 284 284 284 284 284 283 282 282 281 280 280 280 279 279 278 278 277 276 275 274 274 274 273 273 273
289 289 289 289 288 288 287 286 286 286 286 285 285 285 285 284 283 283 283 283 283 283 282 281 281 280 280 280 279 279 278 278 277 277 275 274 274 273 273 273 272 273
289 289 288 288 288 287 286 285 285 285 285 285 284 284 284 284 283 282 282 282 281 281 281 280 280 280 280 279 279 279 278 277 277 276 274 273 273 272 272 272 273 273
289 288 287 287 287 286 285 284 284 284 284 284 284 283 283 283 282 282 281 280 280 280 280 279 280 280 280 279 279 278 278 277 276 275 273 272 272 272 273 273 273 274
288 287 287 286 286 285 284 284 283 283 283 283 283 282 282 281 281 280 280 280 279 279 279 279 279 279 279 279 278 278 277 276 275 274 273 272 272 273 274 274 274 274
287 287 286 285 284 284 283 283 282 282 282 282 281 281 280 280 280 279 279 279 279 279 279 279 279 279 279 278 277 277 276 275 274 273 273 273 274 274 274 275 275 275
287 286 285 284 284 283 282 282 281 281 281 280 280 280 279 279 279 279 278 278 278 278 279 279 279 279 278 278 277 276 276 276 275 274 274 274 274 275 275 275 275 275
286 285 284 283 283 282 281 281 280 280 280 280 279 279 278 278 277 277 277 276 277 278 278 279 279 278 278 277 276 276 276 276 276 275 275 275 275 275 275 275 275 275
285 284 283 282 282 281 280 280 279 279 279 279 278 277 277 276 276 276 276 276 277 278 278 278 278 278 277 276 276 276 277 277 276 275 275 275 275 275 275 275 274 274
284 283 282 281 281 280 279 279 278 278 277 277 277 276 276 275 275 275 275 276 277 277 277 278 277 277 276 275 275 276 276 276 276 275 275 275 275 275 274 274 274 274
283 282 281 280 279 279 278 277 277 277 276 276 275 275 274 274 274 274 275 276 276 277 277 277 277 276 275 275 275 275 276 276 276 275 275 275 274 274 273 273 273 273
283 282 280 279 278 277 277 277 276 276 275 275 274 274 273 273 273 274 275 276 277 277 277 277 276 275 274 274 274 275 276 275 275 275 275 274 274 273 273 273 273 273
282 281 280 279 278 277 277 276 276 275 275 274 274 273 273 273 273 274 275 276 277 277 277 277 276 274 274 274 274 275 275 275 274 274 274 274 273 273 273 273 273 274
281 281 280 279 277 277 277 276 275 275 274 274 274 274 273 273 274 274 274 275 276 277 276 276 275 274 273 273 274 274 275 275 274 274 273 273 273 273 273 274 274 274
281 280 280 278 277 277 276 276 275 274 273 273 273 273 273 273 273 274 274 274 275 275 275 275 274 273 273 273 274 274 275 275 274 274 273 273 273 273 274 274 274 274

ECMWFNIL_925_thetae_024.txt.gz
Theta_e
295 294 294 294 293 293 292 292 292 291 291 291 291 291 291 291 290 289 288 288 287 287 286 286 286 286 286 286 286 286 285 285 285 284 284 284 284 284 283 283 283 282
295 294 294 293 293 293 292 292 292 292 291 291 291 291 291 290 290 289 288 288 287 287 286 286 286 286 286 286 286 286 285 285 284 284 284 284 284 284 283 283 283 282
295 294 294 293 293 293 292 292 292 292 292 291 291 291 291 290 290 289 289 288 287 287 286 285 285 286 286 286 286 286 286 285 285 284 284 284 284 284 283 283 282 282
294 294 294 293 293 293 292 291 291 291 292 291 291 291 291 290 290 289 289 288 287 287 286 285 285 286 286 286 286 286 285 285 284 284 284 284 284 284 283 283 282 282
294 294 294 293 293 292 292 291 291 291 291 291 291 291 290 290 290 289 288 288 287 287 286 285 285 285 286 285 285 285 284 284 283 283 284 284 283 283 283 282 282 281
294 294 293 293 293 292 292 291 291 291 291 291 291 290 290 290 290 289 289 288 287 287 286 285 285 285 285 285 284 284 284 283 283 283 284 283 283 283 282 282 281 281
294 294 293 293 292 292 292 291 291 291 290 290 290 290 290 290 289 289 289 288 287 287 286 285 285 285 285 284 284 283 283 283 283 283 283 283 282 282 282 281 281 280
294 293 293 292 292 292 291 291 291 290 290 289 289 289 289 289 289 289 288 288 287 287 286 285 285 285 284 284 283 283 282 282 282 283 283 282 282 282 281 281 280 280
293 293 292 292 292 291 291 291 291 290 290 289 289 289 288 288 289 288 288 288 287 286 285 285 285 284 284 283 283 283 282 282 282 282 283 283 282 282 281 280 280 279
293 292 292 292 291 291 291 291 290 290 289 289 288 288 288 288 287 287 287 287 286 286 285 284 284 283 283 282 282 282 283 283 283 282 282 282 282 282 281 280 279 278
292 292 292 291 291 291 291 291 290 290 289 289 288 288 287 287 287 286 286 286 286 285 284 284 283 283 283 282 282 282 282 283 283 282 282 282 282 281 280 280 279 278
292 292 291 291 291 291 291 290 290 289 289 289 288 287 287 286 286 286 286 285 285 285 284 284 283 283 282 282 282 282 282 282 282 282 282 281 281 280 280 279 278 277
291 291 291 291 291 291 290 290 289 289 289 288 288 287 286 286 286 286 286 285 285 284 284 283 283 282 282 282 282 281 281 281 281 281 281 280 280 279 279 278 277 277
292 292 291 291 291 290 290 289 289 289 288 288 287 287 286 286 285 285 285 284 284 284 283 283 282 282 281 281 281 281 281 281 280 280 280 279 279 278 278 277 276 276
292 291 291 290 290 290 289 289 288 288 287 287 286 286 286 285 285 285 284 283 283 283 283 282 282 281 281 281 280 280 280 280 280 280 279 279 278 277 277 276 276 275
291 291 290 290 289 289 289 288 288 287 287 286 286 285 285 284 284 284 283 283 283 282 281 281 281 281 281 280 280 280 280 280 279 279 278 278 277 276 275 275 275 275
291 290 290 289 289 289 288 288 287 286 286 285 285 284 284 284 283 283 282 282 282 281 281 280 280 280 280 280 279 280 280 280 279 278 277 277 276 276 275 275 275 275
291 290 289 289 288 288 288 287 286 285 285 284 284 283 283 283 282 282 282 281 281 280 280 279 279 280 279 279 279 279 279 279 278 278 277 276 276 276 275 275 275 275
290 289 289 288 288 287 287 286 285 284 284 283 283 283 282 282 281 281 280 280 280 279 279 278 279 279 278 278 278 278 278 278 278 278 277 276 276 275 275 275 275 275
289 289 288 288 287 287 285 285 284 283 283 283 282 281 281 280 280 280 279 279 279 278 278 278 278 278 278 278 278 277 277 277 277 277 277 276 276 275 275 276 276 275
289 288 287 287 286 285 284 283 283 282 282 282 281 280 280 280 279 279 279 278 278 278 277 277 278 278 277 278 279 278 277 277 277 276 276 276 276 275 276 276 276 275
288 287 287 286 285 284 283 282 282 282 281 281 280 279 279 279 278 278 278 277 277 277 277 277 278 278 277 278 280 280 279 278 277 276 276 276 276 276 276 275 275 274
287 287 286 285 284 283 282 282 281 281 280 280 279 278 278 278 277 277 277 277 276 276 276 276 277 277 278 279 280 280 280 279 277 276 276 276 275 275 275 274 274 274
287 286 285 284 283 282 282 281 280 280 279 279 279 278 277 277 277 277 276 276 276 276 276 277 277 277 279 280 280 280 280 279 277 277 276 275 275 275 274 274 273 273
286 285 285 284 282 282 281 281 280 279 279 278 278 277 277 276 276 276 275 275 275 275 276 277 277 278 279 280 280 280 279 278 277 276 276 275 275 274 274 273 273 273
285 284 284 283 282 281 281 280 279 279 278 277 277 277 276 276 275 275 274 274 274 275 275 276 276 277 279 280 280 280 279 277 276 276 275 275 274 273 273 273 273 274

ECMWFNIL_925_thetae_027.txt.gz
Theta_e
296 296 296 295 295 295 295 294 294 293 293 293 293 293 292 292 292 292 292 292 291 291 289 288 288 287 287 286 286 286 287 287 287 288 287 287 287 286 285 285 285 285
296 296 295 295 295 295 294 294 294 293 293 293 293 293 292 292 291 291 292 291 291 291 290 288 288 287 287 286 286 286 286 287 287 287 287 287 286 285 285 285 285 284
296 295 295 295 295 295 294 294 293 293 293 293 293 292 292 292 291 291 291 291 291 290 289 288 287 287 287 286 286 286 286 286 287 286 286 286 286 285 285 284 284 284
296 295 295 295 295 294 294 293 293 293 293 292 292 292 292 291 291 291 291 290 290 290 289 288 288 287 286 286 285 285 286 286 286 286 285 285 285 284 284 284 284 283
295 296 295 295 295 294 294 293 293 293 292 292 292 292 291 291 291 290 290 290 289 289 288 288 287 287 286 285 285 285 285 285 285 285 285 284 284 283 283 283 283 283
295 295 295 295 295 294 293 293 293 293 292 292 292 291 291 291 291 290 290 289 289 288 288 287 287 286 286 285 285 285 285 285 285 284 284 284 283 283 283 283 283 283
295 295 295 295 294 294 294 293 293 293 292 292 292 291 291 291 290 290 289 289 288 288 287 286 286 286 285 285 284 284 284 284 284 284 283 283 282 282 282 282 282 282
295 295 295 294 294 294 293 293 293 293 292 292 291 291 291 290 290 290 289 289 288 287 287 286 286 285 285 284 284 284 284 284 284 284 283 282 282 282 282 282 282 281
295 295 294 294 293 293 293 293 293 293 292 292 291 291 291 290 290 290 289 289 288 287 287 286 285 285 284 284 284 284 284 283 283 283 282 282 282 282 282 282 281 281
294 294 293 293 293 293 293 293 293 292 292 291 291 290 290 290 290 289 289 288 288 287 286 286 285 284 284 283 283 283 283 283 283 283 282 282 283 283 282 282 282 281
294 293 293 293 293 293 293 293 293 292 291 291 290 290 290 290 289 289 288 288 287 287 286 286 285 284 284 283 283 283 283 283 283 282 282 282 283 283 283 282 282 281
293 293 293 293 293 293 293 292 292 292 291 290 290 290 289 289 288 288 288 288 288 287 286 286 285 284 283 283 283 282 282 282 282 282 282 282 282 282 282 282 282 282
293 293 293 293 293 293 292 292 291 291 290 290 289 289 289 288 288 288 288 288 287 287 286 286 285 284 283 283 282 282 282 281 281 281 281 281 281 281 282 282 282 281
293 293 293 293 292 292 292 291 291 291 290 290 289 289 288 288 288 287 287 287 287 286 286 285 284 284 283 282 282 282 282 281 281 281 280 280 280 280 281 281 281 281
293 293 292 292 292 291 291 291 291 290 290 290 289 289 288 288 288 287 287 286 286 286 285 284 284 283 283 283 282 281 281 280 280 280 280 280 279 279 280 280 280 280
293 292 292 292 291 291 291 291 290 290 290 289 289 288 288 287 287 286 286 286 285 284 284 284 283 283 283 283 283 282 281 280 280 279 279 279 279 279 278 279 279 279
293 292 292 291 291 291 291 290 290 290 289 289 288 287 287 287 286 286 285 285 285 284 284 283 282 282 282 282 282 282 281 280 279 279 279 279 279 279 278 278 277 277
293 292 292 292 291 291 290 290 290 289 289 288 287 287 287 286 286 285 285 284 284 283 283 282 282 282 282 282 281 281 281 280 279 279 279 278 278 278 278 277 276 276
293 292 292 292 291 291 290 290 289 289 288 288 287 287 286 285 285 285 284 284 283 283 282 282 282 281 281 281 281 280 280 280 279 279 279 278 278 278 277 276 275 275
292 292 292 291 291 290 290 289 289 288 288 287 287 286 285 285 284 284 284 283 283 282 282 281 281 281 281 281 281 280 279 279 279 279 278 278 278 277 276 275 275 275
291 291 291 291 290 290 289 289 288 288 287 286 286 285 285 284 284 283 283 282 282 282 281 280 280 280 280 281 281 280 279 279 278 278 277 277 276 276 275 275 275 276
290 290 290 290 289 289 288 288 287 287 286 286 285 284 284 283 283 282 282 281 281 281 280 280 279 279 280 281 281 281 280 278 277 277 276 276 275 275 275 275 276 276
288 289 289 289 289 288 287 287 286 286 285 285 284 283 282 282 282 281 281 281 280 280 279 279 278 279 280 282 282 281 280 278 276 276 275 275 275 275 275 275 276 276
287 287 288 288 287 287 287 286 285 285 284 284 283 282 282 281 281 281 280 280 279 279 279 278 278 278 280 282 282 282 280 278 276 275 275 275 276 276 276 276 276 276
286 286 287 287 287 286 286 285 285 284 284 283 283 282 281 281 280 280 279 279 279 278 278 278 278 278 280 282 283 282 280 278 276 276 276 276 276 276 276 276 276 276
286 286 286 286 286 286 285 284 284 283 283 282 282 281 280 280 279 279 278 278 278 278 278 278 277 277 280 282 283 283 281 278 276 276 276 276 276 276 276 275 275 275

ECMWFNIL_925_thetae_030.txt.gz
Theta_e
297 297 297 297 297 297 296 295 295 295 295 294 294 295 294 294 294 293 293 293 293 292 292 291 290 290 289 289 288 288 288 288 288 288 288 288 288 288 288 288 288 288
297 296 296 297 296 296 296 296 295 295 295 295 295 295 294 294 293 293 293 293 292 292 291 291 290 289 289 289 288 288 287 287 287 287 287 287 288 287 287 288 287 287
296 296 296 296 296 296 296 295 295 295 295 295 294 294 294 294 293 293 293 292 292 292 291 291 290 289 289 289 288 288 287 287 287 287 287 287 287 287 287 287 287 286
296 296 296 296 296 295 295 295 295 294 295 295 294 294 294 293 293 293 293 292 292 291 291 290 290 289 289 288 288 287 287 287 287 286 286 286 286 286 286 286 286 285
295 296 296 295 295 295 295 294 294 294 294 294 294 294 294 293 293 293 292 292 292 291 290 290 289 289 288 288 287 287 287 286 286 286 286 286 286 286 285 285 285 284
295 295 295 295 295 295 295 294 294 294 294 294 294 294 293 293 293 293 292 292 292 291 290 289 289 288 288 288 287 287 286 286 285 285 285 285 285 285 284 284 284 284
295 295 295 295 295 294 295 294 294 294 294 293 293 293 293 293 293 292 292 292 291 291 290 289 289 288 288 287 287 286 286 285 285 285 285 285 285 284 284 284 284 283
295 295 295 295 295 294 294 294 294 294 293 293 293 293 292 292 292 292 292 292 291 291 290 289 289 288 288 287 286 286 285 285 284 284 284 284 284 284 284 284 283 283
295 295 295 295 295 294 294 294 294 294 293 293 293 292 292 292 292 292 291 291 291 290 290 289 289 288 288 287 287 286 285 285 284 284 284 284 283 284 284 283 283 282
295 295 294 294 294 294 294 294 294 294 294 293 293 292 292 291 291 291 291 290 290 290 289 289 289 288 287 287 286 286 285 285 284 284 284 284 284 283 283 283 283 282
295 294 294 294 294 294 294 294 295 294 293 293 292 292 291 291 291 290 290 290 289 289 289 289 289 288 287 287 286 286 285 284 284 284 284 284 284 283 283 283 283 282
294 294 294 294 294 294 294 294 294 294 293 293 292 292 291 291 290 290 290 289 289 289 289 289 288 288 287 287 286 286 285 284 284 283 283 283 283 283 283 283 283 283
293 294 294 294 294 294 294 294 293 293 293 293 292 292 291 290 290 290 290 289 289 289 289 288 288 288 287 286 286 285 285 284 283 283 283 283 283 283 283 283 283 282
292 293 293 294 294 294 293 293 293 293 292 292 292 291 291 291 290 290 289 289 289 288 288 288 287 287 286 286 285 285 284 284 283 283 282 282 282 282 282 282 282 282
292 292 292 293 293 293 293 292 292 292 292 292 291 291 291 290 290 289 289 288 288 288 288 287 287 287 286 286 285 284 284 284 283 283 282 282 281 281 281 281 281 282
291 291 291 292 292 292 292 292 292 292 291 291 291 291 290 290 289 289 288 288 288 287 287 287 286 286 286 286 286 285 284 283 283 282 282 281 281 280 280 280 280 281
290 290 290 290 291 291 292 291 291 291 291 291 291 290 290 289 289 288 288 288 287 287 287 286 286 286 286 285 285 285 285 283 282 282 281 281 281 280 280 279 279 279
290 290 289 289 290 290 291 291 291 291 290 290 290 290 289 289 288 288 288 287 287 287 286 286 286 286 285 285 285 284 284 284 282 282 281 280 280 280 279 279 279 279
289 289 289 289 289 289 290 290 290 290 290 290 289 289 289 288 288 288 287 287 287 286 286 286 286 285 285 284 284 284 284 284 283 282 281 280 280 279 279 279 278 278
288 288 289 289 288 288 288 289 290 289 289 289 289 289 288 288 287 287 287 287 286 286 286 286 285 285 284 284 284 284 284 283 283 282 281 280 279 279 278 278 278 278
288 288 288 288 288 288 288 288 289 289 289 289 289 288 288 287 287 287 286 286 286 286 285 285 285 284 284 284 284 284 284 283 282 281 280 279 279 278 278 278 278 278
287 287 287 288 288 288 287 287 288 288 288 288 288 288 287 287 287 286 286 286 286 285 285 285 284 284 283 283 284 284 284 283 282 280 279 278 278 278 277 277 277 277
287 287 287 287 287 287 287 287 287 287 287 288 287 287 287 286 286 286 286 285 285 285 284 284 283 283 283 283 284 285 284 283 281 279 278 278 277 277 277 276 276 277
287 286 286 287 287 287 287 286 286 286 286 286 287 286 286 286 286 285 285 285 284 284 284 283 283 282 282 283 284 285 285 283 280 279 278 277 277 276 276 276 276 276
286 286 286 286 286 287 287 286 286 285 285 285 285 285 285 285 285 284 284 283 283 283 283 283 282 282 282 283 285 285 285 283 280 278 277 276 276 276 275 276 276 276
286 286 286 286 286 287 287 287 286 285 285 284 284 284 284 284 283 283 283 282 282 282 282 282 281 281 281 283 285 285 285 283 280 278 277 276 276 276 276 276 276 276

ECMWFNIL_925_thetae_033.txt.gz
Theta_e
298 297 297 297 297 297 296 296 296 295 295 295 295 295 295 295 295 294 294 294 294 294 294 294 294 294 293 293 292 291 291 290 290 289 289 289 289 289 289 289 289 290
297 297 297 297 297 297 296 296 296 295 295 295 295 295 295 294 294 294 294 294 293 293 294 293 293 293 293 292 292 291 291 290 289 289 289 288 289 288 288 289 289 289
296 296 296 296 296 296 296 296 295 295 295 295 295 295 295 295 294 294 294 293 293 293 292 292 292 292 292 292 291 291 290 290 289 289 289 288 288 288 288 288 288 289
295 296 296 296 296 296 296 296 295 295 295 295 295 295 295 295 295 294 294 294 293 293 292 292 291 291 291 290 290 290 289 289 289 289 288 288 288 288 288 288 288 288
295 295 295 295 296 296 295 295 295 295 295 295 295 295 295 295 294 294 294 294 294 293 292 292 291 291 290 289 289 289 288 288 288 288 287 287 287 287 287 287 287 287
295 295 295 295 295 295 295 295 295 295 295 295 295 295 294 294 294 294 294 294 294 293 293 292 291 290 290 289 289 288 288 288 287 287 287 287 287 287 287 287 287 287
294 294 294 294 295 295 295 295 295 295 295 295 295 294 294 294 293 293 293 293 293 293 293 292 291 291 290 289 289 288 288 287 287 287 286 286 286 286 286 286 286 286
293 293 293 294 294 294 294 294 295 295 295 295 294 294 294 293 293 293 293 293 293 292 292 292 291 291 290 289 289 288 287 287 286 286 286 286 285 285 285 286 286 285
292 292 292 293 293 293 294 294 294 294 294 294 294 294 294 293 293 292 292 292 292 292 292 291 291 290 290 290 289 288 287 287 286 286 286 285 285 285 285 285 285 285
291 291 291 292 292 292 293 293 293 294 294 294 294 293 293 292 292 292 292 292 291 291 291 290 290 290 289 289 289 288 288 287 286 286 285 285 285 285 285 285 285 284
291 291 291 291 291 291 292 292 292 293 293 293 293 293 293 292 292 291 291 291 291 291 291 290 290 290 289 289 288 288 288 287 287 286 285 285 285 285 285 285 285 285
289 290 290 290 290 290 290 291 291 292 292 292 292 292 292 292 291 291 290 290 291 291 290 290 290 290 289 289 288 288 287 287 286 286 285 285 285 285 284 284 285 285
288 289 289 290 290 290 290 290 290 291 291 291 292 292 292 292 291 291 290 290 290 290 290 290 290 289 289 289 288 288 287 287 286 286 285 285 285 284 284 284 284 284
288 288 288 288 289 290 290 290 289 290 290 290 291 291 291 291 291 291 291 290 290 290 290 290 289 289 289 288 288 287 287 287 286 286 285 285 284 284 284 284 283 284
287 287 287 287 288 288 289 290 290 290 289 290 290 290 290 291 291 291 290 290 290 289 289 289 289 289 289 288 288 287 287 286 286 286 285 285 284 284 283 283 283 283
287 287 286 286 287 287 288 289 290 290 290 289 289 290 290 290 290 290 290 290 289 289 289 289 288 288 288 288 288 287 287 286 286 285 285 285 284 283 283 283 282 282
286 286 286 286 286 286 287 287 288 289 290 289 289 289 289 289 289 290 290 289 289 289 289 288 288 288 288 288 288 288 287 286 286 285 285 284 284 283 283 282 282 282
286 286 286 286 285 285 286 286 287 288 288 289 289 289 288 288 289 289 289 289 289 289 288 288 288 288 288 288 287 287 287 287 286 285 285 284 284 283 283 282 282 281
286 286 285 285 285 285 285 285 286 286 287 288 288 288 288 288 288 288 288 288 288 288 288 288 288 288 287 287 287 287 287 286 286 285 285 284 284 283 283 282 281 281
285 285 285 285 285 285 285 285 285 285 286 286 287 288 287 287 287 288 288 288 288 288 288 287 287 288 287 287 287 287 286 286 286 285 285 284 284 283 283 282 281 281
285 285 285 285 285 285 285 285 285 285 285 285 286 287 287 287 287 287 287 287 287 287 287 287 287 287 287 287 286 286 286 286 286 285 284 284 284 283 282 282 281 281
284 284 284 284 285 285 285 285 285 284 284 285 285 286 286 286 287 287 287 287 287 287 287 287 287 287 286 286 286 286 286 287 286 285 284 284 283 283 282 281 281 280
283 283 284 284 284 284 284 284 284 284 284 284 284 285 285 286 286 286 286 286 286 286 286 286 286 286 286 286 286 286 287 287 287 286 285 284 283 282 282 281 281 280
281 282 282 283 284 284 284 284 284 284 284 284 284 284 284 285 285 285 285 285 285 285 286 286 286 286 286 286 285 286 286 287 287 286 285 284 283 282 281 281 280 280
280 280 280 281 283 283 283 283 283 283 283 283 283 283 284 284 285 285 285 285 285 285 285 285 285 285 285 285 285 285 286 287 286 286 285 283 282 281 280 280 279 279
278 278 279 280 281 281 281 281 282 282 283 283 283 283 283 283 284 284 284 284 284 284 284 284 284 284 284 284 284 285 286 286 286 286 284 283 282 280 279 279 278 278

ECMWFNIL_925_thetae_036.txt.gz
Theta_e
298 298 299 299 299 299 299 299 298 298 298 298 298 297 297 297 296 296 295 295 294 294 294 294 294 293 293 293 293 293 292 292 292 291 291 291 290 290 290 290 290 291
297 297 297 298 298 298 298 298 298 297 297 297 297 297 297 297 296 296 296 295 294 294 294 294 293 293 293 293 293 292 292 291 291 291 291 291 290 290 290 290 290 290
296 296 296 297 297 297 297 297 297 297 297 297 297 296 296 296 296 296 296 295 295 294 294 293 293 293 293 293 293 292 292 291 291 291 291 291 290 290 289 289 289 289
294 295 295 296 296 296 296 296 296 296 296 296 296 296 296 296 296 295 295 295 295 294 294 294 293 293 293 293 292 292 291 291 291 291 290 290 290 289 289 289 289 289
293 293 293 294 294 295 295 296 296 296 296 295 295 295 295 295 295 295 295 294 294 294 294 293 293 293 293 292 292 291 291 291 291 291 290 290 289 289 289 288 288 288
292 292 292 292 292 293 294 295 295 295 295 295 295 295 294 295 294 294 294 294 294 294 293 293 293 293 292 292 291 291 291 291 290 290 290 290 289 289 289 288 288 288
291 291 291 291 291 292 292 293 293 294 294 294 294 294 294 294 294 294 294 294 294 294 293 293 293 293 292 292 291 291 290 290 290 290 290 289 289 289 289 288 288 288
289 290 290 291 291 291 291 291 292 292 293 293 293 293 293 293 293 293 293 293 293 293 293 293 293 293 292 291 291 291 290 290 290 289 289 289 288 288 288 288 288 287
288 288 289 289 290 290 290 291 291 291 291 292 292 292 292 292 293 293 293 293 293 293 293 293 293 292 292 292 291 290 290 290 290 289 289 289 288 288 288 288 287 287
288 287 288 288 288 289 289 290 291 291 291 291 291 292 292 292 292 292 292 292 292 292 292 292 292 292 292 292 291 291 290 290 290 289 289 289 289 288 288 288 287 287
287 287 287 287 287 287 287 288 289 290 291 291 290 290 291 291 292 292 291 291 291 291 291 292 292 292 292 291 291 291 291 290 290 289 289 289 289 288 288 288 288 287
286 286 286 286 286 286 286 287 287 288 289 290 290 290 290 290 291 291 291 291 291 291 291 291 291 291 291 291 291 291 291 290 290 289 289 288 288 288 288 288 288 288
286 286 286 286 286 286 286 286 286 286 287 288 289 290 290 290 290 290 290 290 291 291 291 291 291 291 290 290 290 290 290 290 289 289 288 288 288 288 287 287 287 287
286 285 285 285 285 285 285 285 285 286 286 286 287 288 289 289 289 289 290 290 290 290 290 290 290 290 290 290 290 289 289 289 289 289 288 288 287 287 287 287 286 286
286 286 285 285 285 285 285 285 285 285 285 286 286 286 287 288 289 289 289 289 290 290 290 290 290 290 290 290 289 289 289 289 288 288 288 288 287 287 286 286 286 286
287 286 285 284 284 284 284 284 284 284 285 285 285 285 286 286 287 288 288 289 289 289 289 289 289 289 289 289 289 289 289 289 288 288 288 287 287 287 286 286 286 286
287 287 286 285 284 284 284 284 284 284 284 284 284 284 285 285 285 286 287 288 288 288 289 289 289 289 289 289 289 289 289 289 288 288 288 287 287 287 287 286 286 286
287 286 286 285 285 284 284 284 284 284 284 284 284 284 284 284 285 285 285 286 287 288 288 288 288 288 289 288 288 288 288 288 288 288 288 287 287 287 287 286 286 286
286 286 285 285 285 284 283 283 283 284 284 284 284 283 283 283 284 284 285 285 286 287 287 288 288 288 288 288 288 288 288 288 288 288 288 287 287 287 287 287 286 286
285 285 284 284 284 284 283 283 283 284 284 284 284 284 283 283 283 283 284 284 285 285 286 287 287 288 288 288 287 288 288 288 288 288 288 288 287 287 287 287 286 286
283 283 283 283 283 283 283 283 283 284 284 284 285 284 284 284 284 284 283 284 284 284 285 286 286 287 287 287 287 287 287 288 288 288 288 288 287 287 287 286 286 286
283 283 283 282 282 281 281 281 282 283 283 284 284 284 284 284 284 284 284 284 283 284 284 285 285 285 286 287 287 287 287 288 288 288 288 288 287 287 287 286 286 285
283 282 282 282 281 281 280 280 281 282 282 283 283 283 283 283 283 283 283 283 283 283 283 284 284 284 285 286 287 287 287 288 288 288 288 288 288 287 287 286 286 285
282 282 281 281 280 280 279 279 280 281 281 281 281 282 282 282 282 282 282 282 282 282 283 283 283 283 284 285 286 286 287 287 287 288 288 288 288 288 287 286 286 285
281 281 280 280 279 279 278 278 278 279 279 279 280 281 281 282 283 283 282 282 282 282 282 282 282 283 283 284 284 285 286 286 287 287 288 288 288 288 287 286 286 285
280 279 279 278 278 277 277 277 277 277 278 278 278 279 279 280 281 281 281 281 281 281 281 282 282 282 283 283 283 284 285 286 286 287 287 288 288 288 287 286 285 285

ECMWFNIL_925_thetae_042.txt.gz
Theta_e
295 295 295 295 296 296 296 297 298 298 298 299 299 299 299 299 299 299 299 300 299 299 299 298 298 298 298 298 298 298 298 298 297 297 296 297 296 296 295 295 295 295
293 293 293 294 294 294 295 295 296 296 297 297 298 298 298 298 298 298 298 299 299 299 298 298 298 298 298 298 297 297 297 297 297 297 296 296 296 296 295 295 295 295
291 291 292 292 292 292 293 293 294 294 294 295 295 296 296 297 297 297 297 298 298 298 298 297 297 297 297 297 297 297 297 297 297 297 296 296 296 296 295 295 295 295
289 289 290 289 289 290 290 291 291 292 292 293 293 294 294 294 295 295 296 296 297 297 297 297 296 296 296 296 296 297 296 296 296 296 296 296 296 295 295 295 295 294
288 288 288 288 288 288 288 288 289 289 289 290 291 292 292 293 293 293 294 294 295 295 295 296 296 296 296 296 296 296 296 296 296 296 296 295 295 295 295 295 295 294
286 286 286 287 287 286 286 287 287 287 287 288 288 289 290 291 292 292 292 293 293 294 294 294 295 295 295 295 295 295 295 295 295 295 295 295 295 295 295 294 294 294
286 286 286 286 286 286 286 286 286 286 286 286 286 287 287 288 289 290 291 292 292 293 293 293 294 294 294 295 295 295 295 295 295 295 295 294 294 294 294 294 294 294
287 287 286 286 286 286 286 286 286 286 286 286 286 286 286 286 286 287 288 289 290 291 292 292 293 293 293 293 294 294 294 294 294 294 294 294 294 294 294 294 294 293
288 287 287 287 286 286 286 286 286 285 286 285 285 286 286 286 286 285 286 286 287 288 289 290 291 292 292 292 293 293 294 294 294 294 294 294 293 293 293 293 293 293
288 287 287 287 287 287 286 286 286 286 285 285 285 285 285 285 286 285 285 285 285 286 286 287 288 290 291 291 292 292 292 293 293 293 293 293 293 293 293 293 293 292
287 287 287 287 287 287 287 286 286 286 286 285 285 285 285 285 285 285 285 285 285 285 285 285 286 287 288 290 290 291 291 291 292 292 292 293 293 292 292 292 292 292
287 287 287 287 286 287 286 286 286 286 286 285 285 285 285 285 285 285 285 285 285 285 285 285 285 285 285 287 288 289 290 290 290 291 291 291 292 292 292 292 292 292
287 287 287 287 286 286 286 286 286 286 286 285 285 285 285 285 284 284 285 285 285 285 285 285 285 285 285 285 285 286 288 289 290 290 290 290 290 290 291 291 291 291
287 287 287 286 286 286 286 286 286 286 286 286 285 285 285 285 284 284 284 284 284 285 285 285 285 285 285 285 284 285 285 287 288 289 289 289 289 290 290 290 290 290
287 287 286 286 286 286 286 286 286 286 286 286 285 285 285 285 285 284 284 284 284 284 284 285 285 285 285 285 285 285 285 285 286 287 288 289 289 289 289 289 289 289
286 286 286 286 286 285 285 285 285 285 285 285 285 285 285 285 285 284 284 284 284 284 284 284 285 285 285 285 285 285 285 285 285 285 286 287 288 289 289 289 289 289
286 286 286 285 285 285 285 285 285 285 285 285 285 285 284 284 284 284 284 284 284 284 284 284 285 285 284 285 285 285 285 285 285 284 284 285 286 287 288 288 288 289
286 286 285 285 285 285 285 285 285 285 284 284 284 284 284 284 283 283 283 283 283 283 284 284 284 284 284 284 285 285 285 285 285 285 285 284 284 285 286 287 288 288
285 285 285 285 285 284 284 284 284 284 284 284 284 284 284 283 283 283 282 282 282 282 283 283 284 284 284 284 284 284 284 285 285 285 285 285 285 285 285 286 287 287
283 284 284 284 284 284 283 283 284 284 284 283 283 283 283 283 283 282 282 282 281 281 282 282 283 283 283 283 284 284 284 284 285 285 285 285 285 285 285 286 286 287
282 282 282 282 281 281 281 282 282 282 282 282 282 282 282 282 282 281 281 281 281 280 281 281 281 282 282 283 284 284 284 285 285 285 285 285 285 285 285 285 285 286
279 278 278 278 278 278 278 279 279 279 279 279 279 279 280 280 280 280 280 280 280 280 280 280 280 280 281 281 282 283 284 284 285 285 285 285 285 285 285 285 285 285
276 275 275 275 275 276 276 276 276 276 276 276 277 277 277 277 278 278 278 278 278 279 279 279 279 279 280 280 281 282 283 284 284 285 285 285 285 284 284 284 284 285
273 272 272 273 273 273 273 273 273 273 273 273 273 274 274 275 275 276 276 277 277 277 278 278 278 278 279 280 280 281 282 283 283 283 284 284 284 284 284 284 284 284
270 269 269 270 270 270 269 269 269 269 270 270 270 271 272 272 273 274 274 275 275 276 276 277 277 277 278 279 279 280 280 281 281 282 282 283 283 283 283 283 283 284
267 266 266 266 266 266 266 266 266 267 267 267 268 268 269 270 271 271 272 272 273 274 274 275 275 276 276 277 277 278 278 279 279 280 281 281 281 282 282 283 283 283

ECMWFNIL_925_thetae_045.txt.gz
Theta_e
290 290 290 291 291 291 291 291 292 293 293 293 293 294 294 295 295 296 296 297 298 298 298 298 298 298 297 297 297 297 297 298 298 298 298 298 297 297 296 296 296 296
287 287 287 288 288 288 288 289 289 289 290 290 291 291 292 293 294 294 295 295 296 296 297 297 297 297 297 297 297 296 297 297 297 297 297 297 297 297 296 296 296 296
286 286 286 286 286 286 286 286 286 287 287 287 287 288 288 289 290 291 293 293 294 295 295 295 295 295 295 296 296 296 296 296 296 296 296 297 297 297 297 296 296 296
286 286 286 286 286 285 285 285 285 286 286 286 286 286 286 286 287 288 289 290 291 292 293 294 294 294 294 294 295 295 295 295 295 295 295 296 296 296 296 296 296 295
286 286 286 286 286 286 286 286 286 286 286 286 286 286 286 285 286 286 286 286 287 288 289 291 292 293 293 293 293 294 294 294 294 295 295 295 295 295 295 295 295 295
287 287 287 287 287 287 287 287 287 287 287 287 287 287 286 286 286 286 286 286 286 286 286 287 288 289 291 292 292 292 293 293 293 294 294 294 294 294 294 295 295 295
287 287 287 287 287 287 287 287 287 287 288 287 287 287 287 287 287 287 286 286 286 286 286 285 286 286 287 288 290 291 292 292 292 293 293 294 294 294 294 294 294 294
287 287 287 287 287 287 287 287 287 287 287 287 287 287 287 287 287 287 287 287 287 286 286 286 286 286 285 285 286 287 289 290 291 291 292 292 293 293 293 293 294 293
287 287 287 287 287 287 287 287 287 287 287 287 287 287 287 287 287 287 287 287 287 287 287 286 286 286 286 285 285 285 286 287 288 289 290 291 291 291 292 292 293 293
287 287 287 287 287 286 286 286 286 286 286 286 286 286 286 286 286 286 286 286 286 286 286 286 286 286 286 286 286 286 285 285 285 286 287 289 290 290 290 291 291 292
287 287 287 287 286 286 286 286 286 286 286 286 286 286 285 285 286 286 285 286 285 285 285 286 286 286 286 286 286 286 286 285 285 285 285 286 287 288 289 290 290 290
287 287 287 286 286 286 286 286 286 285 285 285 285 285 285 285 285 285 285 285 285 285 285 285 285 285 285 285 286 286 286 286 286 285 285 285 285 285 287 288 289 289
287 286 286 286 286 286 286 285 285 285 285 285 285 285 285 285 285 285 285 284 284 284 284 284 284 284 284 284 285 285 285 285 285 285 285 285 285 285 285 285 286 287
286 286 285 285 285 285 285 284 284 284 284 284 284 284 284 284 284 284 284 284 284 284 284 284 284 284 284 284 284 284 284 285 285 285 285 285 285 285 285 285 285 285
285 285 285 284 284 284 283 283 283 284 284 283 283 283 283 283 283 283 283 283 283 283 283 283 283 283 283 283 283 283 284 284 284 285 285 285 285 285 285 285 285 285
284 284 283 283 283 282 282 283 283 282 282 282 282 282 282 282 283 283 283 283 283 283 283 283 282 282 282 282 282 283 284 284 284 284 285 285 285 285 285 285 285 285
283 282 282 281 281 281 281 281 281 281 280 280 280 280 281 281 281 282 282 282 282 282 282 282 281 281 282 282 282 283 284 284 284 284 285 285 285 285 285 285 285 285
280 280 280 280 279 279 279 279 279 279 278 278 278 278 278 278 279 279 280 280 280 280 280 280 280 281 281 281 282 283 283 283 284 284 285 285 285 285 285 285 285 285
277 278 277 278 277 277 277 277 277 276 276 276 276 276 276 276 276 277 277 278 278 279 279 279 279 279 280 281 281 282 282 283 283 283 284 284 284 284 284 285 285 285
275 275 275 275 275 274 274 274 274 274 274 274 274 274 274 275 275 275 275 275 276 276 277 277 277 278 279 279 280 281 281 282 282 282 283 283 283 284 284 284 284 284
273 273 272 272 272 271 271 271 271 271 271 271 271 272 272 272 272 272 272 272 273 273 274 274 275 276 277 278 278 279 280 280 281 281 281 282 282 282 283 283 283 284
271 270 270 269 269 269 268 268 268 268 268 268 268 268 268 268 269 269 269 269 270 270 271 271 272 273 274 275 276 277 278 279 279 279 280 280 280 281 281 282 282 283
268 268 267 267 267 266 266 266 266 266 266 266 266 266 266 266 266 267 267 267 267 268 269 269 270 271 272 273 274 275 276 276 277 278 278 279 279 280 280 281 281 282
266 266 265 265 265 265 264 264 264 264 264 264 264 264 264 264 265 265 265 265 266 266 267 267 267 268 269 270 271 272 273 274 275 276 277 277 278 278 279 279 279 280
265 265 264 264 264 263 263 263 263 263 263 263 263 263 263 263 263 263 264 264 264 265 265 265 265 265 266 268 269 270 271 272 273 274 275 276 276 277 277 277 278 278
264 264 263 263 263 263 262 262 262 262 262 262 262 262 262 262 262 263 263 263 263 263 263 264 264 265 265 267 268 269 270 271 272 273 274 275 275 276 276 276 277 277

ECMWFNIL_925_thetae_048.txt.gz
Theta_e
286 286 286 286 286 286 286 286 286 286 286 286 286 286 286 286 286 287 287 288 289 289 290 292 293 293 294 294 295 295 295 295 295 295 295 296 296 296 296 296 296 296
287 287 287 287 287 287 287 287 287 287 287 287 287 287 287 287 287 287 287 287 287 287 287 287 288 289 290 291 292 293 294 294 294 295 295 295 295 295 295 295 296 296
287 287 287 287 287 287 287 288 288 287 287 287 288 288 288 288 288 288 288 287 287 287 287 287 287 287 287 287 288 289 290 291 292 293 293 294 294 294 294 294 295 295
287 287 287 287 287 287 287 287 287 287 287 287 287 287 287 287 287 287 287 287 287 287 287 287 287 287 287 287 286 286 287 287 289 290 291 292 293 293 293 294 294 294
288 287 288 287 287 287 287 287 287 287 287 287 287 287 287 287 287 287 287 287 287 287 287 287 287 287 287 287 287 287 287 286 286 286 287 288 290 291 292 293 293 293
288 288 288 288 288 287 287 287 287 287 287 287 287 287 286 287 286 287 287 286 286 286 286 286 286 286 286 286 287 287 287 287 287 286 286 286 286 287 289 290 291 292
288 288 287 287 287 287 287 287 287 287 286 286 286 286 286 286 286 286 286 286 286 285 285 285 285 285 285 285 285 286 286 286 287 287 287 286 286 286 286 286 288 289
287 287 287 287 287 287 287 287 286 286 286 286 286 285 285 285 285 285 285 285 285 284 284 284 284 284 284 284 284 284 285 285 285 286 286 286 286 286 286 285 285 286
287 287 287 287 287 286 286 286 286 285 285 285 285 285 285 284 284 284 284 284 284 283 283 283 283 284 283 284 284 284 284 284 284 284 285 285 285 286 286 286 285 285
287 287 287 286 286 286 286 285 285 284 284 284 283 284 284 284 284 283 283 283 283 283 283 283 283 283 283 283 283 283 283 283 283 284 284 284 284 285 285 286 286 286
286 286 286 285 285 285 284 284 284 283 283 283 282 283 283 283 283 283 282 282 282 282 282 282 283 283 283 283 283 283 283 283 283 283 283 283 284 284 284 285 285 285
285 285 285 284 284 283 283 282 282 282 282 281 281 282 282 281 281 281 281 281 281 282 282 282 282 282 282 282 282 283 283 283 283 283 283 283 283 283 283 284 284 285
284 284 283 283 282 282 282 281 281 281 280 280 280 280 280 280 279 279 280 280 280 280 280 281 281 281 282 282 282 282 282 282 282 282 282 282 282 282 283 283 284 284
284 283 282 281 281 281 280 280 280 279 279 279 278 278 278 278 278 278 278 278 278 279 279 279 280 280 280 281 281 281 281 282 282 282 282 282 282 282 283 283 283 283
281 281 280 279 279 279 278 278 278 277 277 276 276 276 276 276 276 276 276 276 277 277 277 278 278 279 279 280 280 280 281 281 281 282 282 282 282 282 283 283 283 283
280 279 279 278 278 278 277 277 276 276 275 275 275 275 274 274 274 274 275 275 275 275 276 276 277 277 278 279 279 280 280 281 281 281 282 282 282 282 282 282 283 283
280 280 279 279 278 278 277 277 276 276 275 275 275 274 274 273 273 273 273 273 273 273 273 274 274 275 276 277 277 278 279 279 280 280 280 281 281 281 281 281 282 282
278 278 278 277 277 276 276 276 275 275 275 275 274 274 273 273 272 271 271 270 270 270 270 270 271 272 273 274 274 275 276 277 277 278 278 279 279 280 280 281 281 281
276 275 275 275 274 274 274 274 274 274 273 273 273 272 272 272 271 270 269 268 268 268 268 268 268 269 270 271 272 273 274 275 276 276 277 277 278 278 278 279 279 280
273 273 273 273 272 272 272 272 272 271 271 271 270 270 269 269 268 268 267 266 266 265 266 266 265 266 268 270 271 272 272 273 274 274 275 275 276 276 277 278 278 279
272 271 271 271 271 271 270 270 269 268 268 268 267 267 266 265 265 265 264 264 264 264 264 264 264 265 267 268 269 270 270 271 272 272 272 273 273 274 275 275 276 277
270 269 269 269 269 268 268 268 267 266 266 266 265 265 264 264 263 263 263 263 263 263 263 263 263 264 265 266 267 268 269 270 270 270 270 271 271 271 272 272 273 274
268 268 267 267 267 266 266 266 265 265 265 264 264 263 263 263 263 262 262 262 262 262 262 262 263 263 264 266 266 268 269 269 269 269 270 270 270 271 271 271 272 273
267 266 266 265 265 265 265 264 264 264 264 263 263 262 262 262 262 262 262 262 262 262 262 262 262 263 264 265 266 267 268 268 269 269 269 269 270 270 270 271 272 272
266 266 265 265 264 264 264 263 263 263 263 262 262 262 262 261 261 261 261 261 261 261 262 262 262 262 263 264 265 267 268 268 268 269 269 269 269 270 270 270 271 271
266 265 265 264 264 264 263 263 262 262 262 261 261 261 261 261 261 261 261 261 261 261 261 262 262 262 262 264 265 266 267 268 268 269 269 269 269 269 269 270 270 270